Regional Weather Roundup
Issued by NWS Kansas City/Pleasant Hill, MO

Home | Current Version | Previous Version | Text Only | Print | Product List | Glossary On
Versions: 1 2 3 4 5 6 7 8 9 10 11 12 13 14 15 16 17 18 19 20 21 22 23 24 25 26 27 28 29 30 31 32 33 34 35 36 37 38 39 40 41 42 43 44 45 46 47 48 49 50
000
ASUS43 KEAX 041410
RWREAX

WEATHER ROUNDUP FOR EASTERN KANSAS AND NORTHWEST MISSOURI
NATIONAL WEATHER SERVICE KANSAS CITY/PLEASANT HILL MO
900 AM CDT TUE AUG 04 2015

KSZ040-057-103>105-MOZ028-029-037-043-041500-
...KANSAS CITY METROPOLITAN AREA...

CITY           SKY/WX    TMP DP  RH WIND       PRES   REMARKS
K.C. INTL      PTSUNNY   77  69  76 SE7       29.98R
K.C. DOWNTOWN  MOSUNNY   79  70  74 E3        29.96S
LEES SUMMIT    PTSUNNY   77  70  79 CALM      29.99R
OLATHE - IXD   PTSUNNY   77  70  79 S6        29.98R
OLATHE - OJC   PTSUNNY   75  70  84 SE5       29.98R
LAWRENCE       PTSUNNY   76  71  85 SE6       29.97R

$$

MOZ001>008-011>017-020>025-030>033-038>040-044>046-053-054-041500-
...NORTHERN AND CENTRAL MISSOURI...

CITY           SKY/WX    TMP DP  RH WIND       PRES   REMARKS
ST. JOSEPH     MOSUNNY   73  68  84 SE5       29.98R
MOSBY          SUNNY     73  66  78 S6        29.98R
WARRENSBURG    PTSUNNY   75  70  83 E5        29.98S
WHITEMAN AFB   PTSUNNY   75  69  80 SE7       29.98R
CLINTON        PTSUNNY   75  73  94 CALM      29.99R
SEDALIA        PTSUNNY   76  67  73 SE10      30.00S
WARSAW         NOT AVBL
CHILLICOTHE      N/A     72  67  84 CALM      30.00R
KIRKSVILLE     PTSUNNY   69  64  84 SE10      30.01R

$$

MOZ041-047>049-056>058-063>065-088>090-097-041500-
...EASTERN AND SOUTHERN MISSOURI...

CITY           SKY/WX    TMP DP  RH WIND       PRES   REMARKS
ST. LOUIS INTL PTSUNNY   78  65  63 E5        30.01R
SPIRIT OF STL  PTSUNNY   78  68  71 N6        29.99R
COLUMBIA       MOSUNNY   74  68  81 NE8       30.00S
JEFFERSON CITY PTSUNNY   75  67  76 SE7       29.98F
ROLLA          PTSUNNY   77  72  84 SW6       29.99S
OSAGE BEACH    CLOUDY    73  70  88 S6        30.01R
SPRINGFIELD    CLOUDY    78  69  73 S9        30.01S
BRANSON        CLOUDY    82  66  57 S3        30.04S
JOPLIN         CLOUDY    79  66  64 S9        30.00S
WEST PLAINS    PTSUNNY   80  72  76 SW5       30.04S

$$

IAZ060-094-KSZ022-034>040-054-083-096-NEZ052-066-093-041500-
...KANSAS...SOUTHEAST NEBRASKA AND IOWA...

CITY           SKY/WX    TMP DP  RH WIND       PRES   REMARKS
TOPEKA         PTSUNNY   78  72  81 SE3       29.96S
MANHATTAN      PTSUNNY   77  70  79 CALM      29.95S
EMPORIA        CLOUDY    74  69  85 E5        29.99R
CHANUTE        CLOUDY    74  69  85 SE6       29.97S
WICHITA        CLOUDY    76  68  76 SW7       29.97R
OMAHA          LGT RAIN  67  65  93 NE8       30.03R
LINCOLN        LGT RAIN  67  65  93 N10       30.05R
FALLS CITY     PTSUNNY   73  68  84 NE9       29.99R
LAMONI         TSTM      66  63  90 E8        30.02F FOG
DES MOINES     CLOUDY    72  61  68 N5        30.03R

$$




USA.gov is the U.S. government's official web portal to all federal, state and local government web resources and services.